STARLINK-31905 (59896 NORAD) Tracking and Keplerian Element Data

This shows tracking and keplerian element data for the satellite.

Feedback or suggestion? Click here.




ElementValue
Catalog59896
NameSTARLINK-31905
Epoch Orbit290
Epoch Day160.16667824
Epoch Year2024
RAAN174.3467
Inclination43.0033
Eccentricity0.0001128
Argument of Perigee268.3805
Mean Anonmoly330.4287
Mean Motion15.79956736
Decay Rate-0.01053052
L11 59896U 24100M 24160.16667824 -.01053052 00000+0 -60995-2 0 9995
L22 59896 43.0033 174.3467 0001128 268.3805 330.4287 15.79956736 2904



Live tracking and technical data element details for STARLINK-31905 (NORAD 59896). STARLINK-31905 can be tracked NOW for your location showing map with azimuth and elevation plus other details from your city location.







IsCatalogInMostPopularTable: catalog: 59896, numindb: 8
Update: records affected: 1



GetName: 59896 STARLINK-31905

Hit Count: updated at: Thu, 25 Jul 2024 01:27:29 GMT